Location: Rioux
(40.7500°S, 175.7500°E)
Time: 10:58:13
(UTC+00:00)

SKYMED 2 - Pass Details

Date: 12 June 2024
Orbit: 621 x 623 km, 97.9° (Epoch: 21 July)

Event Time Altitude Azimuth Distance (km) Brightness Sun altitude
Rises 18:25:31 0° 169° (SSE) 2,944 7.0 -13.4°
Reaches altitude 10° 18:27:44 10° 169° (SSE) 2,029 6.1 -13.0°
Maximum altitude 18:32:10 85° 254° (WSW) 641 3.5 -12.2°
Drops below altitude 10° 18:36:32 10° 344° (NNW) 2,002 6.2 -11.4°
Sets 18:38:43 0° 345° (NNW) 2,900 7.1 -11.0°
